Tracking 29892 objects as of 21-Nov-2024
HD Live streaming from Space Station
objects crossing your sky now

ARIANE 5 R/B

Track ARIANE 5 R/B now!


NORAD ID: 43059
Int'l Code: 2017-079E
Perigee: 22,914.5 km
Apogee: 22,923.7 km
Inclination: 55.3 °
Period: 831.5 minutes
Semi major axis: 29290 km
RCS: Unknown
Launch date: December 12, 2017
Source: European Space Agency (ESA)
Launch site: FRENCH GUIANA (FRGUI)

Note: This is a ROCKET BODY
Your satellite tracking list
Your tracking list is empty




NASA's NSSDC Master Catalog

Two Line Element Set (TLE):
1 43059U 17079E   24325.33729579 -.00000016  00000-0  00000-0 0  9994
2 43059  55.2873 234.8668 0001569 281.8390  78.1948  1.73189143 43913
Source of the keplerian elements: AFSPC